McKinney, TX

5:50 AM CDT on August 20, 2017 (GMT -0500)
Collin County Regional

Weather History for KTKI - August, 2013

Change the Weather History Date:

Saturday, August 3, 2013

  Actual Average (KADS) Record (KADS)
Temperature  
Mean Temperature 90 °F -  
Max Temperature 100 °F 95 °F 107 °F (1998)
Min Temperature 80 °F 76 °F 73 °F (2014)
Cooling Degree Days 25    
Growing Degree Days 40 (Base 50)    
Moisture  
Dew Point 67 °F    
Average Humidity 48    
Maximum Humidity 67    
Minimum Humidity 27    
Precipitation  
Precipitation 0.00 in - - ()
Sea Level Pressure  
Sea Level Pressure 29.95 in    
Wind  
Wind Speed 10 mph (SSE)    
Max Wind Speed 13 mph    
Max Gust Speed 18 mph    
Visibility 10 miles    
Events      
Averages and records for this station are not official NWS values.
T = Trace of Precipitation, MM = Missing Value Source: NWS Daily Summary

Daily Weather History Graph

Daily Weather History Graph

Search for Another Location

Airport or City:

Trip Planner

Search our weather history database for the weather conditions in past years. The results will help you decide how hot, cold, wet, or windy it might be!

Date:

Astronomy

Aug. 03, 2013 Rise Set
Actual Time 6:41 AM CDT 8:23 PM CDT
Civil Twilight 6:14 AM CDT 8:50 PM CDT
Nautical Twilight 5:41 AM CDT 9:22 PM CDT
Astronomical Twilight 5:07 AM CDT 9:56 PM CDT
Moon 3:53 AM CDT (8/3) 6:05 PM CDT (8/3)
Length of Visible Light 14h 36m
Length of Day
13h 42m
Waning Crescent, 9% of the Moon is Illuminated
Aug 3
Waning Crescent
Aug 6
New
Aug 14
First Quarter
Aug 20
Full
Aug 28
Last Quarter

Hourly Weather History & Observations

Time (CDT) Temp. Heat Index Dew Point Humidity Pressure Visibility Wind Dir Wind Speed Gust Speed Precip Events Conditions
12:53 AM 87.1 °F 91.3 °F 69.1 °F 55% 29.90 in 10.0 mi South 11.5 mph - N/A   Clear
1:53 AM 86.0 °F 90.1 °F 69.1 °F 57% 29.91 in 10.0 mi South 10.4 mph - N/A   Clear
2:53 AM 84.9 °F 88.2 °F 68.0 °F 57% 29.91 in 10.0 mi South 10.4 mph - N/A   Clear
3:53 AM 84.0 °F 87.0 °F 68.0 °F 58% 29.91 in 10.0 mi South 11.5 mph - N/A   Clear
4:53 AM 84.0 °F 87.0 °F 68.0 °F 58% 29.91 in 10.0 mi South 11.5 mph - N/A   Clear
5:53 AM 82.9 °F 85.8 °F 68.0 °F 60% 29.92 in 10.0 mi South 9.2 mph - N/A   Clear
6:53 AM 80.1 °F 82.7 °F 68.0 °F 67% 29.94 in 10.0 mi South 6.9 mph - N/A   Clear
7:53 AM 82.9 °F 86.5 °F 69.1 °F 63% 29.95 in 10.0 mi South 9.2 mph - N/A   Clear
8:53 AM 86.0 °F 90.1 °F 69.1 °F 57% 29.98 in 10.0 mi South 9.2 mph - N/A   Clear
9:53 AM 88.0 °F 91.4 °F 68.0 °F 51% 29.98 in 10.0 mi South 8.1 mph - N/A   Clear
10:53 AM 91.0 °F 95.2 °F 68.0 °F 47% 29.99 in 10.0 mi SSW 9.2 mph - N/A   Clear
11:53 AM 93.9 °F 97.5 °F 66.9 °F 41% 29.99 in 10.0 mi South 11.5 mph - N/A   Clear
12:53 PM 96.1 °F 99.3 °F 66.0 °F 37% 29.98 in 10.0 mi South 10.4 mph 17.3 mph N/A   Clear
1:53 PM 98.1 °F 103.0 °F 68.0 °F 37% 29.96 in 10.0 mi SE 12.7 mph 17.3 mph N/A   Clear
2:53 PM 98.1 °F 101.8 °F 66.0 °F 35% 29.95 in 10.0 mi SE 11.5 mph 18.4 mph N/A   Clear
3:53 PM 100.0 °F 100.7 °F 60.1 °F 27% 29.94 in 10.0 mi SE 11.5 mph 18.4 mph N/A   Clear
4:53 PM 100.0 °F 101.2 °F 61.0 °F 28% 29.93 in 10.0 mi South 12.7 mph - N/A   Clear
5:53 PM 99.0 °F 101.7 °F 64.0 °F 32% 29.92 in 10.0 mi South 10.4 mph - N/A   Clear
6:53 PM 99.0 °F 101.7 °F 64.0 °F 32% 29.91 in 10.0 mi SSE 11.5 mph - N/A   Clear
7:53 PM 93.9 °F 99.1 °F 69.1 °F 44% 29.92 in 10.0 mi SE 9.2 mph 17.3 mph N/A   Clear
8:53 PM 91.0 °F 95.6 °F 69.1 °F 48% 29.94 in 10.0 mi SE 5.8 mph - N/A   Clear
9:53 PM 89.1 °F 92.1 °F 66.9 °F 48% 29.97 in 10.0 mi SE 6.9 mph - N/A   Clear
10:53 PM 87.1 °F 90.6 °F 68.0 °F 53% 30.00 in 10.0 mi SE 5.8 mph - N/A   Clear
11:53 PM 84.9 °F 88.8 °F 69.1 °F 59% 30.00 in 10.0 mi SSE 5.8 mph - N/A   Clear